Guadalajara Don Miguel, Mexico

5:52 PM CDT on August 18, 2017 (GMT -0500)
Guadalajara Don Miguel

Weather History for MMGL - October, 2012

Change the Weather History Date:

Monday, October 8, 2012

  Actual Average Record
Temperature  
Mean Temperature 67 °F -  
Max Temperature 84 °F 76 °F 84 °F (2007)
Min Temperature 50 °F 50 °F 48 °F (2010)
Cooling Degree Days 2    
Growing Degree Days 17 (Base 50)    
Moisture  
Dew Point 47 °F    
Average Humidity 52    
Maximum Humidity 88    
Minimum Humidity 18    
Precipitation  
Precipitation 0.00 in - - ()
Sea Level Pressure  
Sea Level Pressure 30.07 in    
Wind  
Wind Speed 2 mph ()    
Max Wind Speed 8 mph    
Max Gust Speed -    
Visibility 9.5 miles    
Events      
Averages and records for this station are not official NWS values.
T = Trace of Precipitation, MM = Missing Value Source: Averaged Metar Reports

Daily Weather History Graph

Daily Weather History Graph

Search for Another Location

Airport or City:

Trip Planner

Search our weather history database for the weather conditions in past years. The results will help you decide how hot, cold, wet, or windy it might be!

Date:

Astronomy

Oct. 08, 2012 Rise Set
Actual Time 7:46 AM CDT 7:34 PM CDT
Civil Twilight 7:24 AM CDT 7:56 PM CDT
Nautical Twilight 6:58 AM CDT 8:22 PM CDT
Astronomical Twilight 6:32 AM CDT 8:48 PM CDT
Moon 1:17 AM CDT (10/8) 2:39 PM CDT (10/8)
Length of Visible Light 12h 32m
Length of Day
11h 48m
Last Quarter, 46% of the Moon is Illuminated
Oct 8
Last Quarter
Oct 15
New
Oct 21
First Quarter
Oct 29
Full
Nov 6
Last Quarter

Hourly Weather History & Observations

Time (CDT) Temp. Dew Point Humidity Pressure Visibility Wind Dir Wind Speed Gust Speed Precip Events Conditions
12:56 AM 64.4 °F 55.4 °F 73% 29.83 in 10.0 mi West 3.5 mph - N/A   Clear
1:51 AM 57.2 °F 53.6 °F 88% 30.15 in 10.0 mi Calm Calm - N/A   Clear
2:53 AM 59.0 °F 46.4 °F 63% 30.17 in 10.0 mi Calm Calm - N/A   Clear
3:54 AM 57.2 °F 48.2 °F 72% 29.86 in 10.0 mi West 5.8 mph - N/A   Clear
4:53 AM 55.4 °F 48.2 °F 77% 30.15 in 10.0 mi Calm Calm - N/A   Scattered Clouds
5:50 AM 53.6 °F 48.2 °F 82% 30.16 in 8.0 mi Calm Calm - N/A   Scattered Clouds
6:52 AM 51.8 °F 48.2 °F 88% 29.88 in 8.0 mi SW 3.5 mph - N/A   Clear
7:52 AM 50.0 °F 46.4 °F 87% 30.21 in 10.0 mi Calm Calm - N/A   Clear
8:48 AM 59.0 °F 51.8 °F 77% 30.23 in 10.0 mi Calm Calm - N/A   Clear
9:42 AM 64.4 °F 50.0 °F 59% 29.98 in 10.0 mi Calm Calm - N/A   Clear
10:51 AM 71.6 °F 50.0 °F 46% 30.25 in 8.0 mi Calm Calm - N/A   Clear
11:44 AM 73.4 °F 48.2 °F 41% 30.24 in 8.0 mi NE 8.1 mph - N/A   Clear
12:52 PM 77.0 °F 39.2 °F 26% 29.90 in 8.0 mi ENE 3.5 mph - N/A   Clear
1:46 PM 80.6 °F 46.4 °F 30% 30.19 in 8.0 mi Calm Calm - N/A   Clear
2:41 PM 80.6 °F 44.6 °F 28% 30.15 in 10.0 mi North 5.8 mph - N/A   Clear
3:49 PM 84.2 °F 46.4 °F 27% 29.75 in 10.0 mi NE 3.5 mph - N/A   Clear
4:41 PM 84.2 °F 39.2 °F 20% 30.11 in 10.0 mi SSE 3.5 mph - N/A   Scattered Clouds
5:05 PM 84.2 °F 39.2 °F 20% 30.11 in 10.0 mi SSE 3.5 mph - N/A   Scattered Clouds
5:46 PM 84.2 °F 35.6 °F 18% 30.11 in 10.0 mi Calm Calm - N/A   Clear
6:52 PM 82.4 °F 39.2 °F 21% 29.81 in 10.0 mi Calm Calm - N/A   Clear
7:49 PM 75.2 °F 42.8 °F 31% 30.12 in 10.0 mi SSW 3.5 mph - N/A   Clear
8:51 PM 68.0 °F 48.2 °F 49% 30.13 in 10.0 mi Calm Calm - N/A   Clear
9:47 PM 66.2 °F 48.2 °F 52% 29.89 in 10.0 mi South 4.6 mph - N/A   Clear
10:42 PM 62.6 °F 48.2 °F 59% 30.18 in 10.0 mi Calm Calm - N/A   Clear
11:48 PM 62.6 °F 51.8 °F 68% 30.18 in 10.0 mi Calm Calm - N/A   Clear